Seattle Boeing, WA

6:39 AM PDT on June 26, 2019 (GMT -0700)
Boeing Field-King County International

Weather History for KBFI - November, 2018

Change the Weather History Date:

Thursday, November 8, 2018

  Actual Average Record
Temperature  
Mean Temperature 42 °F -  
Max Temperature 50 °F 51 °F 71 °F (2016)
Min Temperature 35 °F 41 °F 27 °F (1948)
Degree Days  
Heating Degree Days 22    
Moisture  
Dew Point 35 °F    
Average Humidity 82    
Maximum Humidity 100    
Minimum Humidity 59    
Precipitation  
Precipitation 0.00 in - - ()
Sea Level Pressure  
Sea Level Pressure 30.55 in    
Wind  
Wind Speed 2 mph (SE)    
Max Wind Speed 6 mph    
Max Gust Speed -    
Visibility 8 miles    
Events Fog    
Averages and records for this station are not official NWS values.
T = Trace of Precipitation, MM = Missing Value Source: NWS Daily Summary

Daily Weather History Graph

Daily Weather History Graph

Search for Another Location

Airport or City:

Astronomy

Nov. 08, 2018 Rise Set
Actual Time 7:03 AM PST 4:41 PM PST
Civil Twilight 6:30 AM PST 5:14 PM PST
Nautical Twilight 5:54 AM PST 5:51 PM PST
Astronomical Twilight 5:18 AM PST 6:27 PM PST
Moon 7:57 AM PST (11/8) 5:48 PM PST (11/8)
Length of Visible Light 10h 43m
Length of Day
9h 37m
New Moon, 2% of the Moon is Illuminated
Nov 8
New Moon
Nov 15
First Quarter
Nov 22
Full
Nov 29
Last Quarter
Dec 6
New

Hourly Weather History & Observations

Time (PST) Temp. Windchill Dew Point Humidity Pressure Visibility Wind Dir Wind Speed Gust Speed Precip Events Conditions
12:53 AM 37.0 °F - 34.0 °F 89% 30.54 in 9.0 mi Calm Calm - N/A   Clear
1:53 AM 37.0 °F - 34.0 °F 89% 30.55 in 7.0 mi Calm Calm - N/A   Clear
2:53 AM 36.0 °F 33.3 °F 34.0 °F 93% 30.56 in 7.0 mi SSE 3.5 mph - N/A   Clear
2:55 AM 37.0 °F 34.5 °F 34.0 °F 89% 30.55 in 7.0 mi SSE 3.5 mph - N/A   Partly Cloudy
3:50 AM 35.6 °F 32.8 °F 33.8 °F 93% 30.56 in 9.0 mi ESE 3.5 mph - N/A   Mostly Cloudy
3:53 AM 37.0 °F - 34.0 °F 89% 30.56 in 3.0 mi Calm Calm - N/A   Mostly Cloudy
3:55 AM 37.0 °F - 35.1 °F 93% 30.56 in 1.5 mi Calm Calm - N/A   Mostly Cloudy
4:10 AM 35.1 °F - 34.0 °F 96% 30.56 in 0.2 mi Calm Calm - N/A Fog Fog
4:53 AM 35.1 °F 32.2 °F 35.1 °F 100% 30.57 in 0.2 mi South 3.5 mph - N/A Fog Fog
5:53 AM 36.0 °F 32.1 °F 35.1 °F 97% 30.56 in 2.0 mi SE 4.6 mph - N/A   Overcast
6:43 AM 36.0 °F 32.1 °F 35.1 °F 97% 30.57 in 5.0 mi ESE 4.6 mph - N/A   Overcast
6:53 AM 37.0 °F 34.5 °F 35.1 °F 93% 30.57 in 5.0 mi SE 3.5 mph - N/A   Overcast
7:53 AM 39.9 °F 35.8 °F 37.0 °F 89% 30.58 in 10.0 mi SSE 5.8 mph - N/A   Overcast
8:21 AM 39.9 °F 37.8 °F 37.0 °F 89% 30.58 in 8.0 mi South 3.5 mph - N/A   Overcast
8:28 AM 39.9 °F 36.7 °F 37.0 °F 89% 30.58 in 6.0 mi SSE 4.6 mph - N/A   Overcast
8:53 AM 41.0 °F 39.0 °F 37.0 °F 86% 30.58 in 6.0 mi South 3.5 mph - N/A   Overcast
9:53 AM 42.1 °F - 37.9 °F 85% 30.58 in 6.0 mi Calm Calm - N/A   Overcast
10:53 AM 44.1 °F - 37.9 °F 79% 30.59 in 10.0 mi Calm Calm - N/A   Mostly Cloudy
11:53 AM 46.9 °F - 37.9 °F 71% 30.58 in 10.0 mi NE 4.6 mph - N/A   Scattered Clouds
12:53 PM 48.9 °F - 39.0 °F 69% 30.56 in 10.0 mi SSE 3.5 mph - N/A   Partly Cloudy
1:53 PM 50.0 °F - 36.0 °F 59% 30.54 in 10.0 mi ENE 5.8 mph - N/A   Partly Cloudy
2:53 PM 50.0 °F - 36.0 °F 59% 30.53 in 10.0 mi Variable 3.5 mph - N/A   Clear
3:53 PM 48.9 °F - 37.0 °F 64% 30.53 in 10.0 mi NW 5.8 mph - N/A   Clear
4:53 PM 46.9 °F - 36.0 °F 66% 30.52 in 10.0 mi Calm Calm - N/A   Partly Cloudy
5:53 PM 46.9 °F - 35.1 °F 63% 30.53 in 10.0 mi NNE 3.5 mph - N/A   Clear
6:53 PM 45.0 °F 43.5 °F 35.1 °F 68% 30.52 in 10.0 mi North 3.5 mph - N/A   Clear
7:53 PM 44.1 °F - 35.1 °F 71% 30.51 in 10.0 mi Calm Calm - N/A   Clear
8:53 PM 42.1 °F - 35.1 °F 76% 30.50 in 10.0 mi Calm Calm - N/A   Clear
9:53 PM 39.9 °F - 34.0 °F 79% 30.49 in 10.0 mi Calm Calm - N/A   Clear
10:53 PM 39.0 °F - 34.0 °F 82% 30.48 in 10.0 mi Calm Calm - N/A   Clear
11:53 PM 36.0 °F - 33.1 °F 89% 30.46 in 10.0 mi Calm Calm - N/A   Clear